Tracking 29892 objects as of 21-Nov-2024
HD Live streaming from Space Station
objects crossing your sky now

CZ-6A DEB

Track CZ-6A DEB now!
10-day predictions


NORAD ID: 54500
Int'l Code: 2022-151JC
Perigee: 733.3 km
Apogee: 901.4 km
Inclination: 98.9 °
Period: 101.1 minutes
Semi major axis: 7188 km
RCS: Unknown
Launch date: November 11, 2022
Source: People's Republic of China (PRC)
Launch site: Taiyaun Space Center, China (TSC)

Note: This is SATELLITE DEBRIS
Your satellite tracking list
Your tracking list is empty




NASA's NSSDC Master Catalog

Two Line Element Set (TLE):
1 54500U 22151JC  24325.79641897  .00005213  00000-0  21118-2 0  9998
2 54500  98.9267 350.1492 0116986  29.8633 330.9153 14.24489709104796
Source of the keplerian elements: AFSPC